Location: Zagreb
(45.8000°N, 16.0000°E)
Time: 07:09:59
(UTC+01:00)

N. Korean satellite - Pass Details

Date: 07 December 2021
Orbit: 447 x 491 km, 97.3° (Epoch: 23 January)

Event Time Altitude Azimuth Distance (km) Brightness Sun altitude
Rises 04:24:00 0° 27° (NNE) 2,461 10.5 -30.3°
Reaches altitude 10° 04:26:29 10° 47° (NE) 1,581 9.6 -29.9°
Maximum altitude 04:28:56 19° 93° (E) 1,146 9.2 -29.5°
Drops below altitude 10° 04:31:23 10° 140° (SE) 1,572 9.6 -29.0°
Sets 04:33:51 0° 160° (SSE) 2,440 10.4 -28.6°
